Change the Weather History Date:

Saturday, September 24, 2011

  Actual Average Record
Temperature  
Mean Temperature 69 °F 58 °F  
Max Temperature 76 °F 69 °F 87 °F (1959)
Min Temperature 61 °F 48 °F 27 °F (1963)
Degree Days  
Heating Degree Days 0 7  
Month to date heating degree days 71 91  
Since 1 July heating degree days 73 114  
Cooling Degree Days 4 1  
Month to date cooling degree days 68 48  
Year to date cooling degree days 775 591  
Growing Degree Days 20 (Base 50)    
Moisture  
Dew Point 66 °F    
Average Humidity 85    
Maximum Humidity 100    
Minimum Humidity 69    
Precipitation  
Precipitation 0.01 in 0.12 in 1.88 in (1946)
Month to date precipitation 5.40 2.59  
Year to date precipitation 43.30 28.74  
Sea Level Pressure  
Sea Level Pressure 30.00 in    
Wind  
Wind Speed 4 mph (NW)    
Max Wind Speed 10 mph    
Max Gust Speed 13 mph    
Visibility 7 miles    
Events Fog , Rain    
T = Trace of Precipitation, MM = Missing Value Source: NWS Daily Summary

Daily Weather History Graph

Daily Weather History Graph

Search for Another Location

Airport or City:

Trip Planner

Search our weather history database for the weather conditions in past years. The results will help you decide how hot, cold, wet, or windy it might be!

Date:

Astronomy

Sep. 24, 2011 Rise Set
Actual Time 6:44 AM EDT 6:49 PM EDT
Civil Twilight 6:16 AM EDT 7:17 PM EDT
Nautical Twilight 5:43 AM EDT 7:50 PM EDT
Astronomical Twilight 5:09 AM EDT 8:24 PM EDT
Moon 3:12 AM EDT (9/24) 4:57 PM EDT (9/24)
Length of Visible Light 13h 01m
Length of Day
12h 05m
Waning Crescent, 11% of the Moon is Illuminated
Sep 24
Waning Crescent
Sep 27
New
Oct 3
First Quarter
Oct 11
Full
Oct 19
Last Quarter

Hourly Weather History & Observations

Time (EDT) Temp. Dew Point Humidity Pressure Visibility Wind Dir Wind Speed Gust Speed Precip Events Conditions
12:51 AM 68.0 °F 66.9 °F 96% 29.94 in 7.0 mi Calm Calm - 0.00 in Fog Patches of Fog
1:10 AM 68.0 °F 66.2 °F 94% 29.94 in 7.0 mi NNW 3.5 mph - N/A Fog Patches of Fog
1:25 AM 68.0 °F 66.2 °F 94% 29.95 in 7.0 mi NNW 3.5 mph - N/A Fog Patches of Fog
1:51 AM 68.0 °F 66.9 °F 96% 29.95 in 7.0 mi NNE 4.6 mph - N/A Fog Patches of Fog
2:03 AM 68.0 °F 66.2 °F 94% 29.94 in 7.0 mi NE 3.5 mph - N/A Fog Patches of Fog
2:51 AM 68.0 °F 66.9 °F 96% 29.93 in 7.0 mi ENE 3.5 mph - N/A Fog Patches of Fog
3:02 AM 68.0 °F 66.2 °F 94% 29.93 in 7.0 mi NE 3.5 mph - N/A Fog Patches of Fog
3:11 AM 68.0 °F 66.2 °F 94% 29.93 in 7.0 mi ENE 3.5 mph - N/A Fog Patches of Fog
3:51 AM 68.0 °F 66.0 °F 93% 29.93 in 3.0 mi NNE 5.8 mph - N/A Fog Patches of Fog
4:12 AM 68.0 °F 66.2 °F 94% 29.93 in 2.5 mi Calm Calm - N/A Fog Patches of Fog
4:24 AM 68.0 °F 66.2 °F 94% 29.92 in 3.0 mi Calm Calm - N/A Fog Patches of Fog
4:51 AM 68.0 °F 66.0 °F 93% 29.93 in 4.0 mi Calm Calm - N/A Fog Patches of Fog
5:01 AM 68.0 °F 66.2 °F 94% 29.94 in 4.0 mi Calm Calm - N/A Fog Patches of Fog
5:51 AM 66.9 °F 66.0 °F 97% 29.94 in 4.0 mi NNW 3.5 mph - N/A Fog Patches of Fog
6:37 AM 66.2 °F 66.2 °F 100% 29.95 in 2.5 mi Calm Calm - N/A Fog Patches of Fog
6:51 AM 68.0 °F 66.0 °F 93% 29.95 in 2.5 mi Calm Calm - N/A Fog Patches of Fog
7:33 AM 68.0 °F 66.2 °F 94% 29.97 in 1.0 mi SSW 3.5 mph - 0.00 in Rain Light Rain
7:48 AM 68.0 °F 66.2 °F 94% 29.97 in 2.0 mi Calm Calm - 0.01 in Fog Light Drizzle
7:51 AM 68.0 °F 66.9 °F 96% 29.97 in 2.0 mi Calm Calm - 0.01 in Fog Patches of Fog
8:07 AM 69.8 °F 66.2 °F 88% 29.98 in 2.0 mi Calm Calm - N/A Fog Patches of Fog
8:51 AM 71.6 °F 68.0 °F 88% 29.99 in 2.0 mi Calm Calm - N/A Fog Patches of Fog
9:15 AM 73.4 °F 68.0 °F 83% 30.01 in 8.0 mi Calm Calm - N/A Fog Patches of Fog
9:23 AM 73.4 °F 68.0 °F 83% 30.01 in 9.0 mi Calm Calm - N/A   Mostly Cloudy
9:51 AM 73.0 °F 66.9 °F 81% 30.01 in 10.0 mi Calm Calm - N/A   Mostly Cloudy
10:35 AM 73.4 °F 68.0 °F 83% 30.03 in 10.0 mi Calm Calm - N/A   Overcast
10:51 AM 73.0 °F 68.0 °F 84% 30.03 in 10.0 mi WNW 3.5 mph - N/A   Overcast
11:05 AM 73.4 °F 68.0 °F 83% 30.05 in 10.0 mi NNW 5.8 mph - N/A   Overcast
11:51 AM 75.0 °F 68.0 °F 79% 30.04 in 10.0 mi WSW 5.8 mph - N/A   Overcast
12:51 PM 75.0 °F 66.0 °F 73% 30.05 in 10.0 mi WSW 5.8 mph - N/A   Overcast
1:51 PM 75.0 °F 64.9 °F 71% 30.04 in 10.0 mi West 6.9 mph - N/A   Overcast
2:51 PM 75.0 °F 64.9 °F 71% 30.03 in 10.0 mi WNW 6.9 mph - N/A   Overcast
3:51 PM 73.9 °F 66.0 °F 76% 30.04 in 10.0 mi NNW 6.9 mph - N/A   Overcast
4:51 PM 73.0 °F 64.0 °F 73% 30.04 in 10.0 mi NW 6.9 mph - N/A   Mostly Cloudy
5:51 PM 71.1 °F 64.0 °F 78% 30.05 in 10.0 mi NW 5.8 mph - N/A   Mostly Cloudy
6:51 PM 70.0 °F 64.0 °F 81% 30.07 in 10.0 mi NW 5.8 mph - N/A   Mostly Cloudy
7:51 PM 68.0 °F 62.1 °F 81% 30.09 in 10.0 mi West 8.1 mph - N/A   Mostly Cloudy
8:51 PM 66.0 °F 61.0 °F 84% 30.09 in 10.0 mi West 4.6 mph - N/A   Mostly Cloudy
9:51 PM 64.9 °F 61.0 °F 87% 30.10 in 10.0 mi West 3.5 mph - N/A   Mostly Cloudy
10:51 PM 64.0 °F 60.1 °F 87% 30.12 in 10.0 mi SW 4.6 mph - N/A   Mostly Cloudy
11:51 PM 62.6 °F 60.8 °F 94% 30.12 in 10.0 mi Calm Calm - N/A   Scattered Clouds